Regional Weather Roundup
Issued by NWS Goodland, KS

Home | Current Version | Previous Version | Text Only | Print | Product List | Glossary Off
Versions: 1 2 3 4 5 6 7 8 9 10 11 12 13 14 15 16 17 18 19 20 21 22 23 24 25 26 27 28 29 30 31 32 33 34 35 36 37 38 39 40 41 42 43 44 45 46 47 48 49 50

000
ASUS43 KGLD 210859
RWRGLD

GOODLAND FORECAST AREA HOURLY WEATHER ROUNDUP
NATIONAL WEATHER SERVICE GOODLAND KS
200 AM MST SAT JAN 21 2017

...OFFICIAL OBSERVATIONS...

CITY           SKY/WX    TMP DP  RH WIND       PRES   REMARKS
GOODLAND KS    CLEAR     28  25  88 SW9       29.44R
HILL CITY KS   CLEAR     33  32  96 W8        29.44S
IMPERIAL NEB   CLOUDY    32  29  88 W8        29.42S
MCCOOK NEB     CLEAR     31  31 100 SW8       29.43R
AKRON CO       CLEAR     31  18  58 CALM      29.42S
BURLINGTON CO  CLEAR     27  24  89 W6        29.44S
LIMON CO       MOCLDY    17  17 100 N5        29.42F FOG
$$

...UNOFFICIAL OBSERVATIONS...

CITY           SKY/WX    TMP DP  RH WIND       PRES   REMARKS
LENORA KS        N/A     34  32  92 NW7         N/A
NORTON KS      CLEAR     34  28  80 SW8       29.42S
SHARON SPRINGS   N/A     28  27  95 W6          N/A
TRENTON NEB      N/A     32  32 100 CALM        N/A
KIT CARSON CO    N/A     23  21  91 CALM        N/A
YUMA CO        FAIR      21  19  93 SW8       29.43S
$$



USA.gov is the U.S. government's official web portal to all federal, state and local government web resources and services.